| time (UTC) | temp F | wind direction | speed MPH | gust MPH | rain 1hr in | rain 24hr in | rain mn in | humidity % | barometer mb |
| 20260510204003 | 76 | 264 | 1.0 | 2.0 | 0.00 | 0.08 | 0.01 | 51 | 1012.4 |
| 20260510203503 | 76 | 264 | 1.0 | 2.0 | 0.00 | 0.08 | 0.01 | 50 | 1012.4 |
| 20260510203016 | 76 | 257 | 1.0 | 2.0 | 0.00 | 0.08 | 0.01 | 50 | 1012.3 |
| 20260510202503 | 76 | 257 | 1.0 | 2.0 | 0.00 | 0.08 | 0.01 | 50 | 1012.3 |
| 20260510202005 | 76 | 263 | 0.0 | 3.0 | 0.00 | 0.08 | 0.01 | 51 | 1012.3 |
| 20260510201510 | 76 | 267 | 1.0 | 3.0 | 0.00 | 0.08 | 0.01 | 50 | 1012.4 |
| 20260510201004 | 75 | 233 | 1.0 | 2.0 | 0.00 | 0.08 | 0.01 | 49 | 1012.4 |
| 20260510200504 | 76 | 284 | 1.0 | 2.0 | 0.00 | 0.08 | 0.01 | 50 | 1012.4 |
| 20260510200017 | 76 | 267 | 1.0 | 4.0 | 0.00 | 0.08 | 0.01 | 49 | 1012.5 |
| 20260510195507 | 76 | 266 | 1.0 | 4.0 | 0.00 | 0.08 | 0.01 | 48 | 1012.5 |
| 20260510195009 | 76 | 257 | 1.0 | 3.0 | 0.00 | 0.08 | 0.01 | 49 | 1012.4 |
| 20260510194521 | 76 | 257 | 1.0 | 3.0 | 0.00 | 0.08 | 0.01 | 48 | 1012.6 |
| 20260510194003 | 76 | 246 | 2.0 | 4.0 | 0.00 | 0.08 | 0.01 | 47 | 1012.7 |
| 20260510193504 | 76 | 259 | 1.0 | 4.0 | 0.00 | 0.08 | 0.01 | 48 | 1012.6 |
| 20260510193009 | 75 | 231 | 1.0 | 3.0 | 0.00 | 0.08 | 0.01 | 51 | 1012.6 |
| 20260510192503 | 75 | 253 | 2.0 | 3.0 | 0.00 | 0.08 | 0.01 | 52 | 1012.7 |
| 20260510192005 | 75 | 238 | 1.0 | 2.0 | 0.00 | 0.08 | 0.01 | 52 | 1012.8 |
| 20260510191509 | 75 | 261 | 1.0 | 3.0 | 0.00 | 0.08 | 0.01 | 54 | 1012.8 |
| 20260510191006 | 74 | 261 | 1.0 | 3.0 | 0.00 | 0.08 | 0.01 | 55 | 1012.8 |
| 20260510190503 | 74 | 256 | 1.0 | 2.0 | 0.00 | 0.08 | 0.01 | 56 | 1012.9 |
| 20260510190035 | 74 | 270 | 1.0 | 3.0 | 0.00 | 0.08 | 0.01 | 57 | 1012.9 |
| 20260510185504 | 74 | 252 | 1.0 | 5.0 | 0.00 | 0.08 | 0.01 | 56 | 1012.9 |
| 20260510185007 | 74 | 259 | 2.0 | 5.0 | 0.00 | 0.08 | 0.01 | 55 | 1012.9 |
| 20260510184519 | 74 | 252 | 0.0 | 2.0 | 0.00 | 0.08 | 0.01 | 56 | 1012.9 |
| 20260510184006 | 75 | 252 | 0.0 | 2.0 | 0.00 | 0.08 | 0.01 | 56 | 1012.8 |
| 20260510183509 | 75 | 261 | 1.0 | 4.0 | 0.00 | 0.08 | 0.01 | 56 | 1012.8 |
| 20260510183025 | 75 | 273 | 1.0 | 4.0 | 0.00 | 0.08 | 0.01 | 56 | 1012.8 |
| 20260510182504 | 75 | 219 | 2.0 | 4.0 | 0.00 | 0.08 | 0.01 | 56 | 1012.8 |
| 20260510182001 | 74 | 228 | 1.0 | 3.0 | 0.00 | 0.08 | 0.01 | 57 | 1012.8 |
| 20260510181508 | 74 | 227 | 1.0 | 3.0 | 0.00 | 0.08 | 0.01 | 57 | 1012.8 |
| 20260510181006 | 73 | 252 | 2.0 | 3.0 | 0.00 | 0.08 | 0.01 | 57 | 1012.8 |
| 20260510180504 | 72 | 254 | 1.0 | 3.0 | 0.00 | 0.08 | 0.01 | 59 | 1012.9 |
| 20260510180017 | 72 | 289 | 1.0 | 3.0 | 0.00 | 0.08 | 0.01 | 64 | 1012.8 |
| 20260510175504 | 72 | 309 | 1.0 | 3.0 | 0.00 | 0.08 | 0.01 | 63 | 1012.9 |
| 20260510175007 | 71 | 289 | 2.0 | 3.0 | 0.00 | 0.08 | 0.01 | 64 | 1012.9 |
| 20260510174517 | 71 | 286 | 0.0 | 2.0 | 0.00 | 0.08 | 0.01 | 65 | 1012.8 |
| 20260510174012 | 71 | 274 | 0.0 | 2.0 | 0.00 | 0.08 | 0.01 | 66 | 1012.8 |
| 20260510173508 | 71 | 274 | 1.0 | 2.0 | 0.00 | 0.08 | 0.01 | 65 | 1013.0 |
| 20260510173021 | 70 | 276 | 1.0 | 2.0 | 0.00 | 0.08 | 0.01 | 67 | 1012.9 |
| 20260510172508 | 70 | 265 | 1.0 | 2.0 | 0.00 | 0.08 | 0.01 | 66 | 1013.0 |
| 20260510172008 | 70 | 264 | 1.0 | 2.0 | 0.00 | 0.08 | 0.01 | 66 | 1013.0 |
| 20260510171509 | 70 | 263 | 0.0 | 2.0 | 0.00 | 0.08 | 0.01 | 68 | 1013.0 |
| 20260510171003 | 69 | 263 | 1.0 | 2.0 | 0.00 | 0.08 | 0.01 | 70 | 1013.1 |
| 20260510170504 | 69 | 279 | 1.0 | 2.0 | 0.00 | 0.08 | 0.01 | 68 | 1013.2 |
| 20260510170010 | 69 | 279 | 0.0 | 2.0 | 0.00 | 0.08 | 0.01 | 69 | 1013.2 |
| 20260510165503 | 69 | 283 | 0.0 | 2.0 | 0.00 | 0.08 | 0.01 | 70 | 1013.3 |
| 20260510165008 | 69 | 342 | 0.0 | 2.0 | 0.00 | 0.08 | 0.01 | 71 | 1013.3 |
| 20260510164515 | 69 | 330 | 0.0 | 2.0 | 0.00 | 0.08 | 0.01 | 71 | 1013.4 |
| 20260510164006 | 68 | 351 | 1.0 | 2.0 | 0.00 | 0.08 | 0.01 | 75 | 1013.4 |
| 20260510163508 | 68 | 316 | 0.0 | 3.0 | 0.00 | 0.08 | 0.01 | 74 | 1013.4 |
| 20260510163022 | 67 | 279 | 0.0 | 3.0 | 0.00 | 0.08 | 0.01 | 77 | 1013.4 |
| 20260510162508 | 67 | 359 | 0.0 | 2.0 | 0.00 | 0.08 | 0.01 | 76 | 1013.4 |
| 20260510162010 | 67 | 339 | 0.0 | 1.0 | 0.00 | 0.08 | 0.01 | 76 | 1013.4 |
| 20260510161526 | 67 | 314 | 0.0 | 1.0 | 0.00 | 0.08 | 0.01 | 77 | 1013.4 |
| 20260510161009 | 66 | 325 | 0.0 | 1.0 | 0.00 | 0.08 | 0.01 | 78 | 1013.6 |
| 20260510160504 | 65 | 243 | 0.0 | 2.0 | 0.00 | 0.08 | 0.01 | 82 | 1013.8 |
| 20260510160009 | 64 | 299 | 0.0 | 2.0 | 0.00 | 0.08 | 0.01 | 81 | 1013.9 |
| 20260510155503 | 63 | 309 | 0.0 | 2.0 | 0.00 | 0.08 | 0.01 | 81 | 1013.9 |
| 20260510155006 | 64 | 278 | 1.0 | 2.0 | 0.00 | 0.08 | 0.01 | 80 | 1013.9 |
| 20260510154512 | 63 | 301 | 0.0 | 1.0 | 0.00 | 0.08 | 0.01 | 84 | 1013.9 |
| 20260510154006 | 63 | 283 | 0.0 | 2.0 | 0.00 | 0.08 | 0.01 | 85 | 1013.9 |
| 20260510153508 | 62 | 283 | 0.0 | 2.0 | 0.00 | 0.08 | 0.01 | 84 | 1014.0 |
| 20260510153019 | 62 | 288 | 0.0 | 1.0 | 0.00 | 0.08 | 0.01 | 86 | 1014.1 |
| 20260510152509 | 61 | 287 | 1.0 | 1.0 | 0.00 | 0.08 | 0.01 | 87 | 1014.1 |
| 20260510152008 | 61 | 302 | 0.0 | 1.0 | 0.00 | 0.08 | 0.01 | 89 | 1014.0 |
| 20260510151526 | 61 | 302 | 0.0 | 1.0 | 0.00 | 0.08 | 0.01 | 90 | 1014.0 |
| 20260510151010 | 60 | 304 | 0.0 | 1.0 | 0.00 | 0.08 | 0.01 | 92 | 1013.9 |
| 20260510150507 | 60 | 304 | 0.0 | 1.0 | 0.00 | 0.08 | 0.01 | 92 | 1013.9 |
| 20260510150027 | 59 | 304 | 0.0 | 1.0 | 0.00 | 0.08 | 0.01 | 93 | 1014.0 |
| 20260510145509 | 59 | 303 | 0.0 | 1.0 | 0.00 | 0.08 | 0.01 | 93 | 1014.0 |
| 20260510145003 | 58 | 304 | 0.0 | 1.0 | 0.00 | 0.08 | 0.01 | 93 | 1014.0 |
| 20260510144512 | 57 | 303 | 0.0 | 1.0 | 0.00 | 0.08 | 0.01 | 93 | 1014.0 |
| 20260510144002 | 58 | 303 | 0.0 | 1.0 | 0.00 | 0.08 | 0.01 | 94 | 1014.0 |
| 20260510143509 | 57 | 303 | 0.0 | 1.0 | 0.00 | 0.08 | 0.01 | 95 | 1014.0 |
| 20260510143019 | 57 | 303 | 0.0 | 1.0 | 0.00 | 0.08 | 0.01 | 95 | 1014.0 |
| 20260510142507 | 56 | 303 | 0.0 | 1.0 | 0.00 | 0.08 | 0.01 | 94 | 1014.1 |
| 20260510142012 | 56 | 318 | 0.0 | 1.0 | 0.00 | 0.08 | 0.01 | 94 | 1014.1 |
| 20260510141523 | 56 | 318 | 0.0 | 1.0 | 0.00 | 0.08 | 0.01 | 94 | 1014.0 |
| 20260510141015 | 56 | 318 | 0.0 | 1.0 | 0.00 | 0.08 | 0.01 | 94 | 1013.9 |
| 20260510140512 | 56 | 318 | 0.0 | 0.0 | 0.00 | 0.08 | 0.01 | 94 | 1013.8 |
| 20260510140025 | 55 | 318 | 0.0 | 1.0 | 0.00 | 0.08 | 0.01 | 94 | 1013.9 |
| 20260510135507 | 55 | 318 | 0.0 | 1.0 | 0.00 | 0.08 | 0.01 | 94 | 1013.8 |
| 20260510135009 | 55 | 323 | 0.0 | 0.0 | 0.00 | 0.08 | 0.01 | 94 | 1013.8 |
| 20260510134528 | 55 | 323 | 0.0 | 0.0 | 0.00 | 0.08 | 0.01 | 94 | 1013.9 |
| 20260510134003 | 55 | 323 | 0.0 | 0.0 | 0.00 | 0.08 | 0.01 | 94 | 1013.9 |
| 20260510133503 | 55 | 323 | 0.0 | 0.0 | 0.00 | 0.08 | 0.01 | 94 | 1013.9 |
| 20260510133015 | 55 | 323 | 0.0 | 0.0 | 0.00 | 0.08 | 0.01 | 94 | 1014.0 |
| 20260510132508 | 55 | 323 | 0.0 | 0.0 | 0.00 | 0.08 | 0.01 | 95 | 1013.9 |
| 20260510132009 | 55 | 323 | 0.0 | 0.0 | 0.00 | 0.08 | 0.01 | 95 | 1013.8 |
| 20260510131519 | 55 | 323 | 0.0 | 2.0 | 0.00 | 0.08 | 0.01 | 95 | 1013.7 |
| 20260510131007 | 55 | 323 | 0.0 | 2.0 | 0.00 | 0.08 | 0.01 | 95 | 1013.6 |
| 20260510130507 | 55 | 323 | 0.0 | 2.0 | 0.00 | 0.08 | 0.01 | 95 | 1013.5 |
| 20260510130026 | 54 | 324 | 0.0 | 0.0 | 0.00 | 0.08 | 0.01 | 95 | 1013.5 |
| 20260510125507 | 54 | 324 | 0.0 | 1.0 | 0.00 | 0.08 | 0.01 | 95 | 1013.4 |
| 20260510125009 | 54 | 324 | 0.0 | 1.0 | 0.00 | 0.08 | 0.01 | 95 | 1013.5 |
| 20260510124526 | 54 | 325 | 0.0 | 0.0 | 0.00 | 0.08 | 0.01 | 95 | 1013.4 |
| 20260510124009 | 54 | 325 | 0.0 | 0.0 | 0.00 | 0.08 | 0.01 | 95 | 1013.2 |
| 20260510123509 | 54 | 325 | 0.0 | 0.0 | 0.00 | 0.08 | 0.01 | 95 | 1013.3 |
| 20260510123030 | 53 | 325 | 0.0 | 0.0 | 0.00 | 0.08 | 0.01 | 95 | 1013.2 |
| 20260510122507 | 53 | 325 | 0.0 | 0.0 | 0.00 | 0.08 | 0.01 | 95 | 1013.3 |
| 20260510122010 | 53 | 325 | 0.0 | 1.0 | 0.00 | 0.08 | 0.01 | 95 | 1013.2 |
| 20260510121517 | 53 | 325 | 0.0 | 1.0 | 0.00 | 0.08 | 0.01 | 95 | 1013.2 |
| 20260510121007 | 53 | 311 | 0.0 | 1.0 | 0.00 | 0.08 | 0.01 | 95 | 1013.1 |
| 20260510120509 | 53 | 311 | 0.0 | 1.0 | 0.00 | 0.08 | 0.01 | 95 | 1013.1 |
| 20260510120022 | 53 | 317 | 0.0 | 1.0 | 0.00 | 0.08 | 0.01 | 95 | 1013.1 |
| 20260510115507 | 53 | 317 | 0.0 | 1.0 | 0.00 | 0.08 | 0.01 | 95 | 1013.1 |
| 20260510115012 | 53 | 318 | 0.0 | 1.0 | 0.00 | 0.08 | 0.01 | 95 | 1013.1 |
| 20260510114535 | 53 | 318 | 0.0 | 1.0 | 0.00 | 0.08 | 0.01 | 95 | 1012.9 |
| 20260510114011 | 52 | 316 | 0.0 | 1.0 | 0.00 | 0.08 | 0.01 | 95 | 1012.8 |
| 20260510113510 | 52 | 316 | 0.0 | 1.0 | 0.00 | 0.08 | 0.01 | 95 | 1012.9 |
| 20260510113033 | 52 | 316 | 0.0 | 1.0 | 0.00 | 0.08 | 0.01 | 95 | 1012.8 |
| 20260510112508 | 52 | 316 | 0.0 | 1.0 | 0.00 | 0.08 | 0.01 | 95 | 1012.8 |
| 20260510112009 | 52 | 316 | 0.0 | 1.0 | 0.00 | 0.08 | 0.01 | 95 | 1012.8 |
| 20260510111515 | 52 | 320 | 0.0 | 1.0 | 0.00 | 0.08 | 0.01 | 95 | 1012.8 |
| 20260510111006 | 52 | 320 | 0.0 | 1.0 | 0.00 | 0.08 | 0.01 | 95 | 1012.6 |
| 20260510110508 | 52 | 331 | 0.0 | 1.0 | 0.00 | 0.08 | 0.01 | 95 | 1012.4 |
| 20260510110030 | 52 | 306 | 0.0 | 1.0 | 0.00 | 0.08 | 0.01 | 95 | 1012.2 |
| 20260510105509 | 52 | 306 | 0.0 | 1.0 | 0.00 | 0.08 | 0.01 | 95 | 1012.2 |
| 20260510105006 | 52 | 306 | 0.0 | 1.0 | 0.00 | 0.08 | 0.01 | 95 | 1012.3 |
| 20260510104524 | 52 | 306 | 0.0 | 1.0 | 0.00 | 0.08 | 0.01 | 95 | 1012.2 |
| 20260510104008 | 51 | 306 | 0.0 | 1.0 | 0.00 | 0.08 | 0.01 | 95 | 1012.2 |
| 20260510103509 | 51 | 306 | 0.0 | 0.0 | 0.00 | 0.08 | 0.01 | 95 | 1012.4 |
| 20260510103025 | 51 | 306 | 0.0 | 0.0 | 0.00 | 0.08 | 0.01 | 95 | 1012.4 |
| 20260510102507 | 51 | 306 | 0.0 | 0.0 | 0.00 | 0.08 | 0.01 | 95 | 1012.4 |
| 20260510102013 | 51 | 306 | 0.0 | 1.0 | 0.00 | 0.08 | 0.01 | 95 | 1012.2 |
| 20260510101525 | 51 | 306 | 0.0 | 1.0 | 0.00 | 0.08 | 0.01 | 95 | 1012.2 |
| 20260510101008 | 51 | 306 | 0.0 | 1.0 | 0.00 | 0.08 | 0.01 | 95 | 1012.2 |
| 20260510100508 | 51 | 306 | 0.0 | 2.0 | 0.00 | 0.08 | 0.01 | 94 | 1012.1 |
| 20260510100025 | 51 | 306 | 0.0 | 2.0 | 0.00 | 0.08 | 0.01 | 94 | 1012.2 |
| 20260510095508 | 51 | 306 | 0.0 | 1.0 | 0.00 | 0.08 | 0.01 | 94 | 1012.3 |
| 20260510095008 | 51 | 306 | 0.0 | 3.0 | 0.01 | 0.08 | 0.01 | 94 | 1012.2 |
| 20260510094531 | 51 | 306 | 1.0 | 3.0 | 0.01 | 0.08 | 0.01 | 94 | 1012.3 |
| 20260510094007 | 51 | 339 | 0.0 | 3.0 | 0.01 | 0.08 | 0.01 | 95 | 1012.2 |
| 20260510093516 | 51 | 306 | 1.0 | 3.0 | 0.01 | 0.08 | 0.01 | 95 | 1012.3 |
| 20260510093026 | 51 | 337 | 0.0 | 3.0 | 0.01 | 0.08 | 0.01 | 95 | 1012.2 |
| 20260510092507 | 51 | 294 | 1.0 | 4.0 | 0.01 | 0.08 | 0.01 | 95 | 1012.4 |
| 20260510092012 | 50 | 304 | 1.0 | 4.0 | 0.01 | 0.08 | 0.01 | 95 | 1012.3 |
| 20260510091527 | 50 | 302 | 0.0 | 2.0 | 0.01 | 0.08 | 0.01 | 95 | 1012.0 |
| 20260510091009 | 50 | 309 | 1.0 | 3.0 | 0.01 | 0.08 | 0.01 | 95 | 1012.2 |
| 20260510090510 | 50 | 302 | 0.0 | 3.0 | 0.01 | 0.08 | 0.01 | 95 | 1012.2 |
| 20260510090028 | 49 | 316 | 0.0 | 1.0 | 0.01 | 0.08 | 0.01 | 94 | 1012.0 |
| 20260510085512 | 49 | 320 | 0.0 | 0.0 | 0.01 | 0.08 | 0.01 | 94 | 1011.8 |
| 20260510085008 | 49 | 321 | 0.0 | 0.0 | 0.00 | 0.07 | 0.00 | 94 | 1011.9 |
| 20260510084520 | 49 | 321 | 0.0 | 0.0 | 0.00 | 0.07 | 0.00 | 94 | 1011.8 |
| 20260510084007 | 49 | 321 | 0.0 | 0.0 | 0.00 | 0.07 | 0.00 | 94 | 1011.8 |
| 20260510083508 | 49 | 320 | 0.0 | 0.0 | 0.00 | 0.07 | 0.00 | 94 | 1011.9 |
| 20260510083022 | 49 | 320 | 0.0 | 0.0 | 0.00 | 0.07 | 0.00 | 94 | 1011.8 |
| 20260510082506 | 49 | 320 | 0.0 | 0.0 | 0.00 | 0.07 | 0.00 | 94 | 1011.8 |
| 20260510082010 | 48 | 320 | 0.0 | 0.0 | 0.00 | 0.07 | 0.00 | 94 | 1011.9 |
| 20260510081526 | 48 | 320 | 0.0 | 0.0 | 0.00 | 0.07 | 0.00 | 94 | 1011.9 |
| 20260510081010 | 48 | 320 | 0.0 | 0.0 | 0.00 | 0.07 | 0.00 | 94 | 1011.8 |
| 20260510080510 | 48 | 320 | 0.0 | 0.0 | 0.00 | 0.07 | 0.00 | 94 | 1011.8 |
| 20260510080027 | 48 | 321 | 0.0 | 0.0 | 0.00 | 0.07 | 0.00 | 94 | 1011.7 |
| 20260510075508 | 48 | 320 | 0.0 | 0.0 | 0.00 | 0.07 | 0.00 | 94 | 1011.6 |
| 20260510075008 | 48 | 320 | 0.0 | 0.0 | 0.00 | 0.07 | 0.00 | 94 | 1011.7 |
| 20260510074534 | 48 | 320 | 0.0 | 0.0 | 0.00 | 0.07 | 0.00 | 94 | 1011.7 |
| 20260510074006 | 48 | 320 | 0.0 | 0.0 | 0.00 | 0.07 | 0.00 | 94 | 1011.8 |
| 20260510073507 | 47 | 320 | 0.0 | 0.0 | 0.00 | 0.07 | 0.00 | 94 | 1011.7 |
| 20260510073021 | 47 | 320 | 0.0 | 0.0 | 0.00 | 0.07 | 0.00 | 94 | 1011.7 |
| 20260510072507 | 47 | 320 | 0.0 | 0.0 | 0.00 | 0.07 | 0.00 | 94 | 1011.6 |
| 20260510072010 | 47 | 320 | 0.0 | 0.0 | 0.00 | 0.07 | 0.00 | 93 | 1011.5 |
| 20260510071528 | 47 | 320 | 0.0 | 0.0 | 0.00 | 0.07 | 0.00 | 93 | 1011.5 |
| 20260510071007 | 47 | 324 | 0.0 | 0.0 | 0.00 | 0.07 | 0.00 | 93 | 1011.5 |
| 20260510070509 | 47 | 325 | 0.0 | 0.0 | 0.00 | 0.07 | 0.00 | 93 | 1011.4 |
| 20260510070031 | 47 | 325 | 0.0 | 0.0 | 0.00 | 0.07 | 0.00 | 93 | 1011.1 |
| 20260510065503 | 47 | 325 | 0.0 | 0.0 | 0.00 | 0.07 | 0.00 | 93 | 1011.1 |
| 20260510065003 | 47 | 325 | 0.0 | 0.0 | 0.00 | 0.07 | 0.00 | 93 | 1010.9 |
| 20260510064514 | 47 | 325 | 0.0 | 0.0 | 0.00 | 0.07 | 0.00 | 93 | 1011.0 |
| 20260510064004 | 47 | 325 | 0.0 | 0.0 | 0.00 | 0.07 | 0.00 | 93 | 1011.0 |
| 20260510063507 | 47 | 325 | 0.0 | 0.0 | 0.00 | 0.07 | 0.00 | 93 | 1011.0 |
| 20260510063018 | 47 | 325 | 0.0 | 0.0 | 0.00 | 0.07 | 0.00 | 93 | 1011.1 |
| 20260510062510 | 47 | 325 | 0.0 | 0.0 | 0.00 | 0.07 | 0.00 | 93 | 1011.1 |
| 20260510062009 | 47 | 325 | 0.0 | 0.0 | 0.00 | 0.07 | 0.00 | 93 | 1011.1 |
| 20260510061527 | 47 | 325 | 0.0 | 0.0 | 0.00 | 0.07 | 0.00 | 93 | 1011.2 |
| 20260510061010 | 47 | 325 | 0.0 | 0.0 | 0.00 | 0.07 | 0.00 | 93 | 1011.1 |
| 20260510060509 | 47 | 325 | 0.0 | 0.0 | 0.00 | 0.07 | 0.00 | 93 | 1011.1 |
| 20260510060029 | 48 | 325 | 0.0 | 0.0 | 0.00 | 0.07 | 0.00 | 93 | 1011.2 |
| 20260510055510 | 48 | 325 | 0.0 | 0.0 | 0.00 | 0.07 | 0.00 | 93 | 1011.3 |
| 20260510055009 | 48 | 325 | 0.0 | 0.0 | 0.00 | 0.07 | 0.00 | 93 | 1011.3 |
| 20260510054531 | 48 | 325 | 0.0 | 0.0 | 0.00 | 0.07 | 0.00 | 93 | 1011.4 |
| 20260510054004 | 48 | 325 | 0.0 | 0.0 | 0.00 | 0.07 | 0.00 | 93 | 1011.4 |
| 20260510053506 | 48 | 325 | 0.0 | 0.0 | 0.00 | 0.07 | 0.00 | 93 | 1011.5 |
| 20260510053016 | 48 | 325 | 0.0 | 0.0 | 0.00 | 0.07 | 0.00 | 93 | 1011.4 |
| 20260510052506 | 48 | 325 | 0.0 | 0.0 | 0.00 | 0.07 | 0.00 | 92 | 1011.4 |
| 20260510052006 | 48 | 325 | 0.0 | 0.0 | 0.00 | 0.07 | 0.00 | 92 | 1011.4 |
| 20260510051522 | 48 | 325 | 0.0 | 0.0 | 0.00 | 0.07 | 0.00 | 92 | 1011.5 |
| 20260510051009 | 48 | 325 | 0.0 | 0.0 | 0.00 | 0.07 | 0.00 | 92 | 1011.4 |
| 20260510050509 | 48 | 325 | 0.0 | 0.0 | 0.00 | 0.07 | 0.00 | 92 | 1011.4 |
| 20260510050024 | 48 | 325 | 0.0 | 0.0 | 0.00 | 0.07 | 0.00 | 92 | 1011.5 |
| 20260510045510 | 48 | 325 | 0.0 | 0.0 | 0.00 | 0.07 | 0.00 | 92 | 1011.5 |
| 20260510045007 | 48 | 325 | 0.0 | 0.0 | 0.00 | 0.07 | 0.00 | 92 | 1011.5 |
| 20260510044525 | 48 | 325 | 0.0 | 0.0 | 0.00 | 0.07 | 0.00 | 92 | 1011.6 |
| 20260510044008 | 48 | 325 | 0.0 | 0.0 | 0.00 | 0.07 | 0.00 | 92 | 1011.6 |
| 20260510043509 | 48 | 328 | 0.0 | 0.0 | 0.00 | 0.07 | 0.00 | 92 | 1011.6 |
| 20260510043014 | 48 | 328 | 0.0 | 0.0 | 0.00 | 0.07 | 0.00 | 92 | 1011.6 |
| 20260510042506 | 48 | 328 | 0.0 | 0.0 | 0.00 | 0.07 | 0.00 | 92 | 1011.6 |
| 20260510042006 | 48 | 328 | 0.0 | 0.0 | 0.00 | 0.07 | 0.00 | 92 | 1011.7 |
| 20260510041519 | 48 | 328 | 0.0 | 0.0 | 0.00 | 0.07 | 0.00 | 92 | 1011.8 |
| 20260510041006 | 49 | 328 | 0.0 | 0.0 | 0.00 | 0.07 | 0.00 | 92 | 1011.7 |
| 20260510040508 | 49 | 328 | 0.0 | 0.0 | 0.00 | 0.07 | 0.00 | 92 | 1011.7 |
| 20260510040026 | 49 | 328 | 0.0 | 0.0 | 0.00 | 0.07 | 0.00 | 92 | 1011.7 |
| 20260510035507 | 49 | 328 | 0.0 | 0.0 | 0.00 | 0.07 | 0.07 | 92 | 1011.7 |
| 20260510035010 | 49 | 328 | 0.0 | 0.0 | 0.00 | 0.07 | 0.07 | 93 | 1011.6 |
| 20260510034526 | 48 | 328 | 0.0 | 0.0 | 0.00 | 0.07 | 0.07 | 92 | 1011.5 |
| 20260510034010 | 48 | 328 | 0.0 | 0.0 | 0.00 | 0.07 | 0.07 | 92 | 1011.5 |
| 20260510033509 | 48 | 328 | 0.0 | 0.0 | 0.00 | 0.07 | 0.07 | 92 | 1011.3 |
| 20260510033028 | 48 | 328 | 0.0 | 0.0 | 0.00 | 0.07 | 0.07 | 92 | 1011.3 |
| 20260510032510 | 48 | 328 | 0.0 | 0.0 | 0.00 | 0.07 | 0.07 | 92 | 1011.1 |
| 20260510032011 | 48 | 328 | 0.0 | 0.0 | 0.00 | 0.07 | 0.07 | 92 | 1011.3 |
| 20260510031521 | 48 | 328 | 0.0 | 0.0 | 0.00 | 0.07 | 0.07 | 92 | 1011.2 |
| 20260510031006 | 49 | 328 | 0.0 | 0.0 | 0.00 | 0.07 | 0.07 | 92 | 1011.2 |
| 20260510030506 | 49 | 328 | 0.0 | 0.0 | 0.00 | 0.07 | 0.07 | 92 | 1011.2 |
| 20260510030019 | 48 | 328 | 0.0 | 0.0 | 0.00 | 0.07 | 0.07 | 91 | 1011.3 |
| 20260510025508 | 49 | 328 | 0.0 | 0.0 | 0.00 | 0.07 | 0.07 | 91 | 1011.1 |
| 20260510025007 | 49 | 328 | 0.0 | 0.0 | 0.00 | 0.07 | 0.07 | 91 | 1011.0 |
| 20260510024524 | 49 | 328 | 0.0 | 0.0 | 0.00 | 0.07 | 0.07 | 91 | 1011.0 |
| 20260510024008 | 49 | 328 | 0.0 | 0.0 | 0.00 | 0.07 | 0.07 | 91 | 1011.0 |
| 20260510023506 | 49 | 330 | 0.0 | 0.0 | 0.00 | 0.07 | 0.07 | 91 | 1011.0 |
| 20260510023024 | 49 | 330 | 0.0 | 0.0 | 0.00 | 0.07 | 0.07 | 91 | 1011.0 |
| 20260510022513 | 50 | 330 | 0.0 | 0.0 | 0.00 | 0.07 | 0.07 | 91 | 1010.9 |
| 20260510022012 | 50 | 330 | 0.0 | 0.0 | 0.00 | 0.07 | 0.07 | 91 | 1010.9 |
| 20260510021534 | 50 | 330 | 0.0 | 0.0 | 0.00 | 0.07 | 0.07 | 91 | 1011.0 |
| 20260510021011 | 50 | 330 | 0.0 | 0.0 | 0.00 | 0.07 | 0.07 | 91 | 1011.0 |
| 20260510020506 | 50 | 330 | 0.0 | 0.0 | 0.00 | 0.07 | 0.07 | 91 | 1011.0 |
| 20260510020025 | 50 | 330 | 0.0 | 0.0 | 0.00 | 0.07 | 0.07 | 91 | 1011.1 |
| 20260510015507 | 50 | 330 | 0.0 | 0.0 | 0.00 | 0.07 | 0.07 | 91 | 1011.2 |
| 20260510015008 | 51 | 330 | 0.0 | 0.0 | 0.00 | 0.07 | 0.07 | 91 | 1011.3 |
| 20260510014523 | 51 | 330 | 0.0 | 0.0 | 0.00 | 0.07 | 0.07 | 90 | 1011.2 |
| 20260510014008 | 51 | 330 | 0.0 | 0.0 | 0.00 | 0.07 | 0.07 | 90 | 1011.1 |
| 20260510013512 | 51 | 330 | 0.0 | 0.0 | 0.00 | 0.07 | 0.07 | 90 | 1011.0 |
| 20260510013029 | 51 | 330 | 0.0 | 0.0 | 0.00 | 0.07 | 0.07 | 90 | 1010.9 |
| 20260510012510 | 52 | 330 | 0.0 | 0.0 | 0.00 | 0.07 | 0.07 | 90 | 1010.9 |
| 20260510012011 | 52 | 330 | 0.0 | 0.0 | 0.00 | 0.07 | 0.07 | 90 | 1010.9 |
| 20260510011526 | 52 | 330 | 0.0 | 0.0 | 0.00 | 0.07 | 0.07 | 90 | 1010.9 |
| 20260510011010 | 52 | 330 | 0.0 | 0.0 | 0.00 | 0.07 | 0.07 | 90 | 1010.9 |
| 20260510010510 | 52 | 330 | 0.0 | 0.0 | 0.00 | 0.07 | 0.07 | 90 | 1010.9 |
| 20260510010025 | 52 | 330 | 0.0 | 0.0 | 0.00 | 0.07 | 0.07 | 90 | 1010.9 |
| 20260510005509 | 53 | 330 | 0.0 | 0.0 | 0.00 | 0.07 | 0.07 | 90 | 1010.8 |
| 20260510005008 | 53 | 330 | 0.0 | 0.0 | 0.00 | 0.07 | 0.07 | 90 | 1010.7 |
| 20260510004521 | 53 | 330 | 0.0 | 0.0 | 0.00 | 0.07 | 0.07 | 90 | 1010.7 |
| 20260510004011 | 53 | 330 | 0.0 | 0.0 | 0.00 | 0.07 | 0.07 | 90 | 1010.6 |
| 20260510003510 | 54 | 330 | 0.0 | 0.0 | 0.00 | 0.07 | 0.07 | 90 | 1010.6 |
| 20260510003024 | 54 | 330 | 0.0 | 0.0 | 0.00 | 0.07 | 0.07 | 90 | 1010.7 |
| 20260510002507 | 54 | 329 | 0.0 | 0.0 | 0.00 | 0.07 | 0.07 | 89 | 1010.6 |
| 20260510002010 | 54 | 330 | 0.0 | 0.0 | 0.00 | 0.07 | 0.07 | 90 | 1010.7 |
| 20260510001536 | 54 | 330 | 0.0 | 0.0 | 0.00 | 0.07 | 0.07 | 89 | 1010.7 |
| 20260510001010 | 54 | 330 | 0.0 | 0.0 | 0.00 | 0.07 | 0.07 | 89 | 1010.6 |
| 20260510000512 | 55 | 330 | 0.0 | 0.0 | 0.00 | 0.07 | 0.07 | 89 | 1010.6 |
| 20260510000028 | 55 | 330 | 0.0 | 0.0 | 0.00 | 0.07 | 0.07 | 89 | 1010.6 |
| 20260509235510 | 55 | 330 | 0.0 | 0.0 | 0.00 | 0.07 | 0.07 | 89 | 1010.5 |
| 20260509235013 | 55 | 330 | 0.0 | 1.0 | 0.00 | 0.07 | 0.07 | 89 | 1010.6 |
| 20260509234527 | 55 | 330 | 0.0 | 1.0 | 0.00 | 0.07 | 0.07 | 89 | 1010.6 |
| 20260509234007 | 55 | 330 | 0.0 | 1.0 | 0.00 | 0.07 | 0.07 | 89 | 1010.6 |
| 20260509233509 | 56 | 330 | 0.0 | 1.0 | 0.00 | 0.07 | 0.07 | 89 | 1010.5 |
| 20260509233025 | 56 | 330 | 0.0 | 1.0 | 0.00 | 0.07 | 0.07 | 89 | 1010.4 |
| 20260509232509 | 56 | 330 | 0.0 | 1.0 | 0.00 | 0.07 | 0.07 | 89 | 1010.4 |
| 20260509232007 | 56 | 330 | 0.0 | 1.0 | 0.00 | 0.07 | 0.07 | 89 | 1010.3 |
| 20260509231524 | 56 | 330 | 0.0 | 1.0 | 0.00 | 0.07 | 0.07 | 89 | 1010.4 |
| 20260509231008 | 56 | 326 | 0.0 | 1.0 | 0.00 | 0.07 | 0.07 | 89 | 1010.4 |
| 20260509230510 | 56 | 323 | 0.0 | 1.0 | 0.01 | 0.07 | 0.07 | 88 | 1010.4 |
| 20260509230028 | 56 | 326 | 0.0 | 1.0 | 0.02 | 0.07 | 0.07 | 88 | 1010.5 |
| 20260509225510 | 56 | 326 | 0.0 | 1.0 | 0.02 | 0.07 | 0.07 | 88 | 1010.6 |
| 20260509225012 | 56 | 342 | 0.0 | 1.0 | 0.05 | 0.07 | 0.07 | 88 | 1010.6 |
| 20260509224527 | 56 | 342 | 0.0 | 2.0 | 0.07 | 0.07 | 0.07 | 88 | 1010.5 |
| 20260509224009 | 56 | 354 | 1.0 | 2.0 | 0.07 | 0.07 | 0.07 | 88 | 1010.6 |
| 20260509223507 | 56 | 321 | 0.0 | 1.0 | 0.07 | 0.07 | 0.07 | 88 | 1010.7 |
| 20260509223027 | 56 | 312 | 0.0 | 1.0 | 0.07 | 0.07 | 0.07 | 87 | 1010.8 |
| 20260509222509 | 56 | 313 | 0.0 | 3.0 | 0.07 | 0.07 | 0.07 | 87 | 1010.9 |
| 20260509222015 | 56 | 310 | 0.0 | 3.0 | 0.07 | 0.07 | 0.07 | 87 | 1010.9 |
| 20260509221527 | 56 | 312 | 0.0 | 2.0 | 0.07 | 0.07 | 0.07 | 87 | 1010.9 |
| 20260509221004 | 56 | 301 | 1.0 | 2.0 | 0.07 | 0.07 | 0.07 | 86 | 1010.8 |
| 20260509220504 | 56 | 295 | 0.0 | 1.0 | 0.06 | 0.06 | 0.06 | 86 | 1011.0 |
| 20260509220012 | 57 | 290 | 1.0 | 2.0 | 0.05 | 0.05 | 0.05 | 86 | 1011.0 |
| 20260509215503 | 57 | 337 | 1.0 | 2.0 | 0.05 | 0.05 | 0.05 | 83 | 1010.9 |
| 20260509215002 | 58 | 311 | 0.0 | 1.0 | 0.02 | 0.02 | 0.02 | 81 | 1011.1 |
| 20260509214529 | 58 | 311 | 0.0 | 1.0 | 0.00 | 0.00 | 0.00 | 79 | 1011.7 |
| 20260509214006 | 59 | 311 | 0.0 | 2.0 | 0.00 | 0.00 | 0.00 | 77 | 1011.5 |
| 20260509213508 | 59 | 316 | 1.0 | 3.0 | 0.00 | 0.00 | 0.00 | 76 | 1011.2 |
| 20260509213018 | 59 | 315 | 1.0 | 3.0 | 0.00 | 0.00 | 0.00 | 76 | 1011.2 |
| 20260509212509 | 59 | 309 | 2.0 | 3.0 | 0.00 | 0.00 | 0.00 | 76 | 1011.3 |
| 20260509212007 | 59 | 307 | 1.0 | 2.0 | 0.00 | 0.00 | 0.00 | 75 | 1011.1 |
| 20260509211526 | 59 | 308 | 1.0 | 3.0 | 0.00 | 0.00 | 0.00 | 76 | 1010.8 |
| 20260509211008 | 59 | 302 | 2.0 | 3.0 | 0.00 | 0.00 | 0.00 | 75 | 1010.8 |
| 20260509210507 | 59 | 313 | 1.0 | 3.0 | 0.00 | 0.00 | 0.00 | 75 | 1010.8 |
| 20260509210012 | 59 | 340 | 0.0 | 2.0 | 0.00 | 0.00 | 0.00 | 75 | 1010.7 |
| 20260509205503 | 59 | 327 | 0.0 | 1.0 | 0.00 | 0.00 | 0.00 | 76 | 1010.8 |
| 20260509205002 | 59 | 327 | 0.0 | 2.0 | 0.00 | 0.00 | 0.00 | 77 | 1010.9 |
| 20260509204526 | 59 | 311 | 1.0 | 2.0 | 0.00 | 0.00 | 0.00 | 76 | 1011.0 |